Back to catalog

FREGAT R/B

AliveHEO
NORAD 40002·ROCKET BODY·🇷🇺 Russia

Launched Jun 14, 2014 from Plesetsk Cosmodrome

Loading…

Next Passes (next 24 hours)

TLE

FreshSource: Space-Track

Epoch: Sep 13, 2026, 09:38 UTC

1 40002U 14032B   26256.40188353 -.00000059  00000-0  00000+0 0  9993
2 40002  65.3787 317.0536 0078309  84.9503 276.0170  2.09160880 93576

Track FREGAT R/B in real time with AllMySat

Download on the App Store